| time (UTC) | temp F | wind direction | speed knots | gust knots | rain 1hr in | rain 24hr in | rain mn in | humidity % | barometer mb |
| 20260504003504 | 68 | 20 | 11.3 | 0.0 | 0.00 | 0.00 | 0.00 | 65 | 1014.0 |
| 20260504002503 | 68 | 20 | 11.3 | 0.0 | 0.00 | 0.00 | 0.00 | 49 | 1014.0 |
| 20260504001503 | 68 | 20 | 11.3 | 0.0 | 0.00 | 0.00 | 0.00 | 48 | 1014.0 |
| 20260504000502 | 68 | 20 | 11.3 | 0.0 | 0.00 | 0.00 | 0.00 | 49 | 1014.0 |
| 20260503235501 | 69 | 20 | 11.3 | 0.0 | 0.00 | 0.00 | 0.00 | 48 | 1014.0 |
| 20260503234501 | 69 | 20 | 11.3 | 0.0 | 0.00 | 0.00 | 0.00 | 47 | 1014.0 |
| 20260503233500 | 70 | 20 | 11.3 | 0.0 | 0.00 | 0.00 | 0.00 | 46 | 1014.0 |
| 20260503232500 | 70 | 20 | 11.3 | 0.0 | 0.00 | 0.00 | 0.00 | 46 | 1014.0 |
| 20260503231459 | 71 | 20 | 11.3 | 0.0 | 0.00 | 0.00 | 0.00 | 45 | 1014.0 |
| 20260503230458 | 71 | 20 | 11.3 | 0.0 | 0.00 | 0.00 | 0.00 | 45 | 1014.0 |
| 20260503225458 | 71 | 20 | 11.3 | 0.0 | 0.00 | 0.00 | 0.00 | 45 | 1014.0 |
| 20260503224458 | 70 | 20 | 11.3 | 0.0 | 0.00 | 0.00 | 0.00 | 44 | 1014.0 |
| 20260503223457 | 70 | 20 | 11.3 | 0.0 | 0.00 | 0.00 | 0.00 | 45 | 1014.0 |
| 20260503222456 | 70 | 20 | 11.3 | 0.0 | 0.00 | 0.00 | 0.00 | 45 | 1014.0 |
| 20260503221455 | 70 | 20 | 11.3 | 0.0 | 0.00 | 0.00 | 0.00 | 45 | 1014.0 |
| 20260503220454 | 70 | 30 | 9.6 | 0.0 | 0.00 | 0.00 | 0.00 | 45 | 1014.0 |
| 20260503215454 | 71 | 30 | 9.6 | 0.0 | 0.00 | 0.00 | 0.00 | 44 | 1014.0 |
| 20260503214453 | 70 | 30 | 9.6 | 0.0 | 0.00 | 0.00 | 0.00 | 44 | 1014.0 |
| 20260503213453 | 70 | 30 | 9.6 | 0.0 | 0.00 | 0.00 | 0.00 | 44 | 1014.0 |
| 20260503212452 | 70 | 30 | 9.6 | 0.0 | 0.00 | 0.00 | 0.00 | 45 | 1015.0 |
| 20260503211452 | 70 | 30 | 9.6 | 0.0 | 0.00 | 0.00 | 0.00 | 46 | 1015.0 |
| 20260503210451 | 70 | 30 | 9.6 | 0.0 | 0.00 | 0.00 | 0.00 | 47 | 1015.0 |
| 20260503205450 | 70 | 20 | 3.5 | 9.6 | 0.00 | 0.00 | 0.00 | 48 | 1015.0 |
| 20260503204450 | 69 | 10 | 7.0 | 0.0 | 0.00 | 0.00 | 0.00 | 49 | 1015.0 |
| 20260503203449 | 69 | 10 | 7.0 | 0.0 | 0.00 | 0.00 | 0.00 | 51 | 1015.0 |
| 20260503202448 | 68 | 10 | 7.0 | 0.0 | 0.00 | 0.00 | 0.00 | 52 | 1016.0 |
| 20260503201448 | 68 | 10 | 7.0 | 0.0 | 0.00 | 0.00 | 0.00 | 52 | 1016.0 |
| 20260503200447 | 67 | 27 | 0.9 | 7.0 | 0.00 | 0.00 | 0.00 | 54 | 1016.0 |
| 20260503195447 | 67 | 335 | 2.6 | 7.0 | 0.00 | 0.00 | 0.00 | 55 | 1016.0 |
| 20260503194446 | 67 | 10 | 7.0 | 0.0 | 0.00 | 0.00 | 0.00 | 64 | 1016.0 |
| 20260503193446 | 67 | 10 | 7.0 | 0.0 | 0.00 | 0.00 | 0.00 | 64 | 1016.0 |
| 20260503192445 | 66 | 10 | 7.0 | 0.0 | 0.00 | 0.00 | 0.00 | 56 | 1017.0 |
| 20260503191444 | 66 | 10 | 7.0 | 0.0 | 0.00 | 0.00 | 0.00 | 58 | 1017.0 |
| 20260503190444 | 66 | 10 | 7.0 | 0.0 | 0.00 | 0.00 | 0.00 | 94 | 1017.0 |
| 20260503185443 | 68 | 360 | 4.3 | 0.0 | 0.00 | 0.00 | 0.00 | 94 | 1017.0 |
| 20260503184442 | 70 | 360 | 4.3 | 0.0 | 0.00 | 0.00 | 0.00 | 94 | 1017.0 |
| 20260503183442 | 72 | 360 | 4.3 | 0.0 | 0.00 | 0.00 | 0.00 | 94 | 1018.0 |
| 20260503182441 | 74 | 360 | 4.3 | 0.0 | 0.00 | 0.00 | 0.00 | 94 | 1018.0 |
| 20260503181440 | 74 | 360 | 4.3 | 0.0 | 0.00 | 0.00 | 0.00 | 94 | 1018.0 |
| 20260503180440 | 74 | 360 | 4.3 | 0.0 | 0.00 | 0.00 | 0.00 | 94 | 1018.0 |
| 20260503175439 | 62 | 20 | 5.2 | 0.0 | 0.00 | 0.00 | 0.00 | 68 | 1018.0 |
| 20260503174439 | 62 | 20 | 5.2 | 0.0 | 0.00 | 0.00 | 0.00 | 68 | 1018.0 |
| 20260503173438 | 62 | 20 | 5.2 | 0.0 | 0.00 | 0.00 | 0.00 | 68 | 1018.0 |
| 20260503172437 | 61 | 20 | 5.2 | 0.0 | 0.00 | 0.00 | 0.00 | 10 | 1019.0 |
| 20260503171437 | 61 | 20 | 5.2 | 0.0 | 0.00 | 0.00 | 0.00 | 10 | 1018.0 |
| 20260503170436 | 61 | 20 | 9.6 | 0.0 | 0.00 | 0.00 | 0.00 | 10 | 1018.0 |
| 20260503150428 | 56 | 23 | 2.6 | 3.5 | 0.00 | 0.00 | 0.00 | 76 | 1021.0 |
| 20260503130421 | 50 | 30 | 13.0 | 0.0 | 0.00 | 0.00 | 0.00 | 73 | 1022.0 |
| 20260503110413 | 50 | 30 | 13.0 | 0.0 | 0.00 | 0.00 | 0.00 | 72 | 1020.0 |
| 20260503090405 | 51 | 30 | 13.0 | 0.0 | 0.00 | 0.00 | 0.00 | 72 | 1021.0 |
| 20260503081403 | 51 | 30 | 13.0 | 0.0 | 0.00 | 0.00 | 0.00 | 74 | 1021.0 |
| 20260503080402 | 51 | 30 | 13.0 | 0.0 | 0.00 | 0.00 | 0.00 | 74 | 1021.0 |
| 20260503072359 | 51 | 30 | 13.0 | 0.0 | 0.00 | 0.00 | 0.00 | 75 | 1022.0 |
| 20260503071359 | 51 | 30 | 13.0 | 0.0 | 0.00 | 0.00 | 0.00 | 75 | 1021.0 |
| 20260503070358 | 51 | 30 | 13.0 | 0.0 | 0.00 | 0.00 | 0.00 | 77 | 1021.0 |
| 20260503054353 | 52 | 30 | 13.0 | 0.0 | 0.00 | 0.00 | 0.00 | 78 | 1021.0 |
| 20260503053352 | 52 | 30 | 13.0 | 0.0 | 0.00 | 0.00 | 0.00 | 78 | 1021.0 |
| 20260503052352 | 52 | 30 | 13.0 | 0.0 | 0.00 | 0.00 | 0.00 | 78 | 1021.0 |
| 20260503051351 | 52 | 30 | 13.0 | 0.0 | 0.00 | 0.00 | 0.00 | 79 | 1021.0 |
| 20260503050350 | 52 | 30 | 13.0 | 0.0 | 0.00 | 0.00 | 0.00 | 79 | 1021.0 |
| 20260503045350 | 52 | 30 | 13.0 | 0.0 | 0.00 | 0.00 | 0.00 | 78 | 1021.0 |
| 20260503044350 | 52 | 30 | 13.0 | 0.0 | 0.00 | 0.00 | 0.00 | 78 | 1021.0 |
| 20260503043349 | 53 | 30 | 13.0 | 0.0 | 0.00 | 0.00 | 0.00 | 78 | 1021.0 |
| 20260503042348 | 53 | 30 | 13.0 | 0.0 | 0.00 | 0.00 | 0.00 | 78 | 1021.0 |
| 20260503041348 | 53 | 30 | 13.0 | 0.0 | 0.00 | 0.00 | 0.00 | 78 | 1021.0 |
| 20260503040347 | 53 | 30 | 13.0 | 0.0 | 0.00 | 0.00 | 0.00 | 78 | 1021.0 |
| 20260503035347 | 53 | 30 | 13.0 | 0.0 | 0.00 | 0.00 | 0.00 | 78 | 1021.0 |
| 20260503034346 | 52 | 30 | 13.0 | 0.0 | 0.00 | 0.00 | 0.00 | 85 | 1021.0 |
| 20260503033345 | 52 | 30 | 13.0 | 0.0 | 0.00 | 0.00 | 0.00 | 85 | 1021.0 |
| 20260503032345 | 52 | 30 | 13.0 | 0.0 | 0.00 | 0.00 | 0.00 | 85 | 1022.0 |
| 20260503031344 | 52 | 30 | 13.0 | 0.0 | 0.00 | 0.00 | 0.00 | 84 | 1021.0 |
| 20260503030344 | 52 | 30 | 13.0 | 0.0 | 0.00 | 0.00 | 0.00 | 78 | 1021.0 |
| 20260503025343 | 53 | 30 | 13.0 | 0.0 | 0.00 | 0.00 | 0.00 | 79 | 1021.0 |
| 20260503024342 | 53 | 30 | 13.0 | 0.0 | 0.00 | 0.00 | 0.00 | 85 | 1021.0 |
| 20260503023342 | 53 | 30 | 13.0 | 0.0 | 0.00 | 0.00 | 0.00 | 85 | 1021.0 |
| 20260503022341 | 53 | 30 | 13.0 | 0.0 | 0.00 | 0.00 | 0.00 | 85 | 1021.0 |
| 20260503021340 | 53 | 30 | 13.0 | 0.0 | 0.00 | 0.00 | 0.00 | 84 | 1020.0 |
| 20260503020340 | 53 | 30 | 13.0 | 0.0 | 0.00 | 0.00 | 0.00 | 78 | 1020.0 |
| 20260503015339 | 53 | 30 | 13.0 | 0.0 | 0.00 | 0.00 | 0.00 | 78 | 1020.0 |
| 20260503014339 | 53 | 30 | 13.0 | 0.0 | 0.00 | 0.00 | 0.00 | 78 | 1020.0 |
| 20260503013338 | 53 | 30 | 13.9 | 0.0 | 0.00 | 0.00 | 0.00 | 85 | 1019.0 |
| 20260503012337 | 53 | 30 | 13.9 | 0.0 | 0.00 | 0.00 | 0.00 | 85 | 1019.0 |
| 20260503011337 | 54 | 30 | 13.9 | 0.0 | 0.00 | 0.00 | 0.00 | 83 | 1018.0 |
| 20260503010336 | 54 | 50 | 9.6 | 0.0 | 0.00 | 0.00 | 0.00 | 77 | 1018.0 |
| 20260503005335 | 54 | 50 | 9.6 | 0.0 | 0.00 | 0.00 | 0.00 | 77 | 1018.0 |
| 20260503004335 | 54 | 50 | 9.6 | 0.0 | 0.00 | 0.00 | 0.00 | 85 | 1018.0 |